sat.trackr.live / text

‹ back to catalog

STARLINK-30117

NORAD 56702 · 2023-067Q

PAYLOAD ACTIVE UNKNOWN

§ Identity

Operator
Country
US
Launch date
2023-05-19
Launch site
AFETR
Launch vehicle
Mass (kg)
RCS (m²)

Purposes: comms

External: N2YO · Heavens-Above · Gunter

§ Orbital elements

Epoch: 2026-09-20T10:53:00.415392Z

Period
94.27 min
Inclination
43.0024°
Eccentricity
0.0001088
Mean motion
15.27574698 rev/d
Perigee alt
482.3 km
Apogee alt
483.8 km
Semi-major
6,861.2 km
B*
6.5793e-6
RAAN
258.1488°
Arg perigee
256.6880°
Mean anomaly
103.3850°
Rev number
18,540

§ Raw data

STARLINK-301171 56702U 23067Q   26263.45347703 -.00000081  00000+0  65793-5 0  99942 56702  43.0024 258.1488 0001088 256.6880 103.3850 15.27574698185405

JSON: /api/v1/satellites/56702 · /tle

For live sub-satellite position, see the globe view (requires WebGL).

§ Visibility from observer

Set your observer location to see the next 7 days of passes ≥ 10°. The values pass through the URL so the page stays shareable.

No JS? Fill the form by hand. The geolocation button needs JavaScript.